Wetterdaten: Freitag, 25.09.2015
Datum Zeit Auen-Temp. Temp gefhlt Luftfeuchte Luftdruck Regen Wind Richtung Richtung Taupunkt Windben
25.09.2015 00:00 5,4 C 5,1 C 89 % 1020,6 hPa 0,0 mm 0,0 km/h (0 Bft) W 270 3,7 C 0,0 km/h (0 Bft)
25.09.2015 00:05 5,4 C 5,1 C 89 % 1020,6 hPa 0,0 mm 0,0 km/h (0 Bft) W 270 3,7 C 0,0 km/h (0 Bft)
25.09.2015 00:10 5,7 C 5,4 C 89 % 1020,6 hPa 0,0 mm 0,3 km/h (0 Bft) S 180 4,0 C 0,0 km/h (0 Bft)
25.09.2015 00:15 5,6 C 5,4 C 89 % 1020,9 hPa 0,0 mm 0,3 km/h (0 Bft) S 180 3,9 C 0,0 km/h (0 Bft)
25.09.2015 00:20 5,4 C 5,2 C 89 % 1020,9 hPa 0,0 mm 0,5 km/h (0 Bft) W-NW 292 3,7 C 3,9 km/h (1 Bft)
25.09.2015 00:25 5,4 C 5,3 C 89 % 1020,9 hPa 0,0 mm 0,8 km/h (0 Bft) W 270 3,7 C 0,0 km/h (0 Bft)
25.09.2015 00:30 5,4 C 5,2 C 89 % 1020,9 hPa 0,0 mm 0,5 km/h (0 Bft) N-NO 22 3,7 C 0,0 km/h (0 Bft)
25.09.2015 00:35 5,1 C 5,0 C 89 % 1020,8 hPa 0,0 mm 0,0 km/h (0 Bft) N-NO 22 3,4 C 0,0 km/h (0 Bft)
25.09.2015 00:40 5,1 C 4,9 C 89 % 1020,8 hPa 0,0 mm 0,0 km/h (0 Bft) SO 135 3,4 C 0,0 km/h (0 Bft)
25.09.2015 00:45 5,3 C 5,0 C 89 % 1020,8 hPa 0,0 mm 0,0 km/h (0 Bft) SO 135 3,6 C 0,0 km/h (0 Bft)
25.09.2015 00:50 4,9 C 4,7 C 90 % 1020,8 hPa 0,0 mm 0,0 km/h (0 Bft) SO 135 3,4 C 0,0 km/h (0 Bft)
25.09.2015 00:55 4,7 C 4,5 C 90 % 1020,8 hPa 0,0 mm 0,0 km/h (0 Bft) SO 135 3,2 C 0,0 km/h (0 Bft)
25.09.2015 01:00 4,7 C 4,4 C 90 % 1020,8 hPa 0,0 mm 0,0 km/h (0 Bft) SO 135 3,2 C 0,0 km/h (0 Bft)
25.09.2015 01:05 4,8 C 4,4 C 90 % 1020,8 hPa 0,0 mm 0,0 km/h (0 Bft) O-SO 112 3,3 C 0,0 km/h (0 Bft)
25.09.2015 01:10 4,8 C 4,5 C 87 % 1020,8 hPa 0,0 mm 0,0 km/h (0 Bft) O 90 2,8 C 0,0 km/h (0 Bft)
25.09.2015 01:15 4,8 C 4,5 C 87 % 1020,7 hPa 0,0 mm 0,0 km/h (0 Bft) O 90 2,8 C 0,0 km/h (0 Bft)
25.09.2015 01:20 4,8 C 4,4 C 90 % 1020,7 hPa 0,0 mm 0,0 km/h (0 Bft) O 90 3,3 C 0,0 km/h (0 Bft)
25.09.2015 01:25 4,4 C 4,2 C 90 % 1020,7 hPa 0,0 mm 0,0 km/h (0 Bft) O 90 2,9 C 0,0 km/h (0 Bft)
25.09.2015 01:30 4,2 C 4,0 C 90 % 1020,7 hPa 0,0 mm 0,0 km/h (0 Bft) O 90 2,7 C 0,0 km/h (0 Bft)
25.09.2015 01:35 4,3 C 4,0 C 90 % 1020,6 hPa 0,0 mm 0,0 km/h (0 Bft) S-SW 202 2,8 C 0,0 km/h (0 Bft)
25.09.2015 01:40 4,3 C 4,0 C 90 % 1020,6 hPa 0,0 mm 0,0 km/h (0 Bft) S-SW 202 2,8 C 0,0 km/h (0 Bft)
25.09.2015 01:42 4,2 C 3,9 C 90 % 1020,6 hPa 0,0 mm 0,0 km/h (0 Bft) S-SW 202 2,7 C 0,0 km/h (0 Bft)
25.09.2015 01:45 4,2 C 3,9 C 90 % 1020,6 hPa 0,0 mm 0,0 km/h (0 Bft) S-SW 202 2,7 C 0,0 km/h (0 Bft)
25.09.2015 01:50 4,0 C 3,8 C 90 % 1020,6 hPa 0,0 mm 0,0 km/h (0 Bft) SW 225 2,5 C 0,0 km/h (0 Bft)
25.09.2015 01:55 4,0 C 3,8 C 90 % 1020,6 hPa 0,0 mm 0,0 km/h (0 Bft) SW 225 2,5 C 0,0 km/h (0 Bft)
25.09.2015 02:00 4,1 C 3,9 C 90 % 1020,6 hPa 0,0 mm 0,0 km/h (0 Bft) SW 225 2,6 C 0,0 km/h (0 Bft)
25.09.2015 02:05 3,8 C 3,7 C 90 % 1020,6 hPa 0,0 mm 0,0 km/h (0 Bft) SW 225 2,3 C 0,0 km/h (0 Bft)
25.09.2015 02:10 4,0 C 3,8 C 90 % 1020,6 hPa 0,0 mm 0,0 km/h (0 Bft) S 180 2,5 C 0,0 km/h (0 Bft)
25.09.2015 02:15 4,0 C 3,8 C 90 % 1020,6 hPa 0,0 mm 0,3 km/h (0 Bft) W-SW 247 2,5 C 4,7 km/h (1 Bft)
25.09.2015 02:20 4,2 C 4,2 C 87 % 1020,6 hPa 0,0 mm 1,3 km/h (1 Bft) SW 225 2,2 C 6,0 km/h (2 Bft)
25.09.2015 02:25 4,1 C 4,1 C 90 % 1020,6 hPa 0,0 mm 1,0 km/h (0 Bft) W-SW 247 2,6 C 0,0 km/h (0 Bft)
25.09.2015 02:30 3,8 C 3,8 C 90 % 1020,6 hPa 0,0 mm 0,0 km/h (0 Bft) W-SW 247 2,3 C 0,0 km/h (0 Bft)
25.09.2015 02:35 3,8 C 3,7 C 91 % 1020,5 hPa 0,0 mm 0,0 km/h (0 Bft) SW 225 2,5 C 0,0 km/h (0 Bft)
25.09.2015 02:40 3,7 C 3,6 C 91 % 1020,5 hPa 0,0 mm 0,0 km/h (0 Bft) W 270 2,4 C 0,0 km/h (0 Bft)
25.09.2015 02:45 3,7 C 3,5 C 90 % 1020,5 hPa 0,0 mm 0,0 km/h (0 Bft) W 270 2,2 C 0,0 km/h (0 Bft)
25.09.2015 02:50 3,9 C 3,7 C 91 % 1020,5 hPa 0,0 mm 0,0 km/h (0 Bft) W 270 2,6 C 0,0 km/h (0 Bft)
25.09.2015 02:55 3,9 C 3,6 C 91 % 1020,4 hPa 0,0 mm 0,0 km/h (0 Bft) SW 225 2,6 C 0,0 km/h (0 Bft)
25.09.2015 03:00 3,7 C 3,6 C 88 % 1020,4 hPa 0,0 mm 0,0 km/h (0 Bft) SO 135 1,9 C 0,0 km/h (0 Bft)
25.09.2015 03:05 3,7 C 3,5 C 91 % 1020,4 hPa 0,0 mm 0,0 km/h (0 Bft) SO 135 2,4 C 0,0 km/h (0 Bft)
25.09.2015 03:10 4,0 C 3,7 C 91 % 1020,4 hPa 0,0 mm 0,0 km/h (0 Bft) S-SO 157 2,7 C 0,0 km/h (0 Bft)
25.09.2015 03:15 3,7 C 3,4 C 91 % 1020,5 hPa 0,0 mm 0,0 km/h (0 Bft) S-SO 157 2,4 C 0,0 km/h (0 Bft)
25.09.2015 03:20 3,6 C 3,4 C 91 % 1020,5 hPa 0,0 mm 0,0 km/h (0 Bft) S-SO 157 2,3 C 0,0 km/h (0 Bft)
25.09.2015 03:25 3,6 C 3,4 C 91 % 1020,5 hPa 0,0 mm 0,0 km/h (0 Bft) S-SO 157 2,3 C 0,0 km/h (0 Bft)
25.09.2015 03:30 3,6 C 3,3 C 91 % 1020,5 hPa 0,0 mm 0,0 km/h (0 Bft) SO 135 2,3 C 0,0 km/h (0 Bft)
25.09.2015 03:35 4,0 C 3,6 C 91 % 1020,5 hPa 0,0 mm 0,0 km/h (0 Bft) S-SO 157 2,7 C 0,0 km/h (0 Bft)
25.09.2015 03:40 3,7 C 3,4 C 91 % 1020,5 hPa 0,0 mm 0,0 km/h (0 Bft) S 180 2,4 C 0,0 km/h (0 Bft)
25.09.2015 03:45 3,5 C 3,3 C 91 % 1020,5 hPa 0,0 mm 0,0 km/h (0 Bft) S 180 2,2 C 0,0 km/h (0 Bft)
25.09.2015 03:50 3,2 C 3,1 C 91 % 1020,5 hPa 0,0 mm 0,0 km/h (0 Bft) S 180 1,9 C 0,0 km/h (0 Bft)
25.09.2015 03:55 3,3 C 3,1 C 91 % 1020,6 hPa 0,0 mm 0,0 km/h (0 Bft) S 180 2,0 C 0,0 km/h (0 Bft)
25.09.2015 04:00 3,5 C 3,2 C 91 % 1020,6 hPa 0,0 mm 0,0 km/h (0 Bft) S 180 2,2 C 0,0 km/h (0 Bft)
25.09.2015 04:05 3,6 C 3,3 C 91 % 1020,6 hPa 0,0 mm 0,0 km/h (0 Bft) S 180 2,3 C 0,0 km/h (0 Bft)
25.09.2015 04:10 3,8 C 3,6 C 88 % 1020,6 hPa 0,0 mm 0,0 km/h (0 Bft) S 180 2,0 C 0,0 km/h (0 Bft)
25.09.2015 04:15 3,8 C 3,7 C 88 % 1020,5 hPa 0,0 mm 0,0 km/h (0 Bft) SW 225 2,0 C 0,0 km/h (0 Bft)
25.09.2015 04:20 4,1 C 4,0 C 88 % 1020,5 hPa 0,0 mm 0,0 km/h (0 Bft) S 180 2,3 C 0,0 km/h (0 Bft)
25.09.2015 04:25 4,1 C 4,0 C 88 % 1020,5 hPa 0,0 mm 0,0 km/h (0 Bft) W 270 2,3 C 0,0 km/h (0 Bft)
25.09.2015 04:30 3,9 C 3,8 C 92 % 1020,5 hPa 0,0 mm 0,5 km/h (0 Bft) SW 225 2,7 C 6,0 km/h (2 Bft)
25.09.2015 04:35 4,3 C 4,1 C 92 % 1020,4 hPa 0,0 mm 0,8 km/h (0 Bft) S-SW 202 3,1 C 0,0 km/h (0 Bft)
25.09.2015 04:40 4,1 C 4,0 C 92 % 1020,4 hPa 0,0 mm 0,5 km/h (0 Bft) W-SW 247 2,9 C 0,0 km/h (0 Bft)
25.09.2015 04:45 4,1 C 4,0 C 92 % 1020,4 hPa 0,0 mm 0,0 km/h (0 Bft) N 360 2,9 C 0,0 km/h (0 Bft)
25.09.2015 04:50 4,1 C 4,0 C 92 % 1020,4 hPa 0,0 mm 0,0 km/h (0 Bft) SW 225 2,9 C 0,0 km/h (0 Bft)
25.09.2015 04:55 4,2 C 4,0 C 92 % 1020,2 hPa 0,0 mm 0,0 km/h (0 Bft) S 180 3,0 C 0,0 km/h (0 Bft)
25.09.2015 05:00 4,2 C 4,0 C 92 % 1020,2 hPa 0,0 mm 0,0 km/h (0 Bft) S 180 3,0 C 0,0 km/h (0 Bft)
25.09.2015 05:05 4,5 C 4,2 C 92 % 1020,2 hPa 0,0 mm 0,0 km/h (0 Bft) S 180 3,3 C 0,0 km/h (0 Bft)
25.09.2015 05:10 4,3 C 4,2 C 92 % 1020,2 hPa 0,0 mm 0,3 km/h (0 Bft) W 270 3,1 C 0,0 km/h (0 Bft)
25.09.2015 05:15 4,3 C 4,1 C 92 % 1020,4 hPa 0,0 mm 0,3 km/h (0 Bft) W 270 3,1 C 0,0 km/h (0 Bft)
25.09.2015 05:20 4,2 C 4,0 C 92 % 1020,4 hPa 0,0 mm 0,3 km/h (0 Bft) S-SW 202 3,0 C 3,6 km/h (1 Bft)
25.09.2015 05:25 4,3 C 4,1 C 92 % 1020,4 hPa 0,0 mm 0,3 km/h (0 Bft) S-SW 202 3,1 C 0,0 km/h (0 Bft)
25.09.2015 05:30 4,3 C 4,2 C 92 % 1020,4 hPa 0,0 mm 0,0 km/h (0 Bft) W 270 3,1 C 0,0 km/h (0 Bft)
25.09.2015 05:35 4,2 C 4,1 C 92 % 1020,2 hPa 0,0 mm 0,0 km/h (0 Bft) W 270 3,0 C 0,0 km/h (0 Bft)
25.09.2015 05:40 4,2 C 4,1 C 92 % 1020,2 hPa 0,0 mm 0,0 km/h (0 Bft) W 270 3,0 C 0,0 km/h (0 Bft)
25.09.2015 05:45 4,3 C 4,2 C 92 % 1020,2 hPa 0,0 mm 0,0 km/h (0 Bft) W 270 3,1 C 0,0 km/h (0 Bft)
25.09.2015 05:50 4,4 C 4,4 C 88 % 1020,2 hPa 0,0 mm 0,0 km/h (0 Bft) W-SW 247 2,6 C 0,0 km/h (0 Bft)
25.09.2015 05:55 4,5 C 4,6 C 88 % 1020,2 hPa 0,0 mm 0,0 km/h (0 Bft) SW 225 2,7 C 0,0 km/h (0 Bft)
25.09.2015 06:00 4,6 C 4,8 C 88 % 1020,2 hPa 0,0 mm 0,0 km/h (0 Bft) W 270 2,8 C 0,0 km/h (0 Bft)
25.09.2015 06:05 4,8 C 4,9 C 88 % 1020,2 hPa 0,0 mm 0,0 km/h (0 Bft) W-SW 247 3,0 C 0,0 km/h (0 Bft)
25.09.2015 06:10 5,0 C 5,0 C 88 % 1020,2 hPa 0,0 mm 0,0 km/h (0 Bft) S 180 3,2 C 0,0 km/h (0 Bft)
25.09.2015 06:15 5,1 C 5,0 C 93 % 1020,2 hPa 0,0 mm 0,0 km/h (0 Bft) S 180 4,1 C 0,0 km/h (0 Bft)
25.09.2015 06:20 5,1 C 5,0 C 93 % 1020,2 hPa 0,0 mm 0,0 km/h (0 Bft) S 180 4,1 C 0,0 km/h (0 Bft)
25.09.2015 06:25 5,1 C 5,0 C 93 % 1020,2 hPa 0,0 mm 0,0 km/h (0 Bft) S 180 4,1 C 0,0 km/h (0 Bft)
25.09.2015 06:30 5,2 C 5,1 C 93 % 1020,2 hPa 0,0 mm 0,0 km/h (0 Bft) S 180 4,2 C 0,0 km/h (0 Bft)
25.09.2015 06:35 5,2 C 5,1 C 93 % 1020,3 hPa 0,0 mm 0,0 km/h (0 Bft) S 180 4,2 C 0,0 km/h (0 Bft)
25.09.2015 06:40 5,3 C 5,2 C 93 % 1020,3 hPa 0,0 mm 0,0 km/h (0 Bft) S 180 4,3 C 0,0 km/h (0 Bft)
25.09.2015 06:45 5,3 C 5,2 C 93 % 1020,3 hPa 0,0 mm 0,0 km/h (0 Bft) S 180 4,3 C 0,0 km/h (0 Bft)
25.09.2015 06:50 5,4 C 5,3 C 93 % 1020,3 hPa 0,0 mm 0,0 km/h (0 Bft) S 180 4,4 C 0,0 km/h (0 Bft)
25.09.2015 06:55 5,4 C 5,4 C 88 % 1020,3 hPa 0,0 mm 0,0 km/h (0 Bft) S 180 3,6 C 0,0 km/h (0 Bft)
25.09.2015 07:00 5,5 C 5,5 C 88 % 1020,3 hPa 0,0 mm 0,0 km/h (0 Bft) S 180 3,7 C 0,0 km/h (0 Bft)
25.09.2015 07:05 5,6 C 5,5 C 93 % 1020,3 hPa 0,0 mm 0,0 km/h (0 Bft) W 270 4,6 C 0,0 km/h (0 Bft)
25.09.2015 07:10 5,6 C 5,6 C 88 % 1020,3 hPa 0,0 mm 0,0 km/h (0 Bft) W 270 3,8 C 0,0 km/h (0 Bft)
25.09.2015 07:15 5,7 C 5,6 C 93 % 1020,4 hPa 0,0 mm 0,0 km/h (0 Bft) W 270 4,7 C 0,0 km/h (0 Bft)
25.09.2015 07:20 5,7 C 5,7 C 88 % 1020,4 hPa 0,0 mm 0,0 km/h (0 Bft) W 270 3,9 C 0,0 km/h (0 Bft)
25.09.2015 07:25 5,7 C 5,7 C 88 % 1020,4 hPa 0,0 mm 0,0 km/h (0 Bft) W 270 3,9 C 0,0 km/h (0 Bft)
25.09.2015 07:30 5,8 C 5,8 C 88 % 1020,4 hPa 0,0 mm 0,0 km/h (0 Bft) S 180 4,0 C 0,0 km/h (0 Bft)
25.09.2015 07:35 5,8 C 5,8 C 88 % 1020,6 hPa 0,0 mm 0,0 km/h (0 Bft) S 180 4,0 C 0,0 km/h (0 Bft)
25.09.2015 07:40 5,9 C 5,9 C 88 % 1020,6 hPa 0,0 mm 0,0 km/h (0 Bft) S 180 4,1 C 0,0 km/h (0 Bft)
25.09.2015 07:43 5,9 C 6,0 C 88 % 1020,6 hPa 0,0 mm 0,0 km/h (0 Bft) S 180 4,1 C 0,0 km/h (0 Bft)
25.09.2015 07:45 5,9 C 6,0 C 88 % 1020,6 hPa 0,0 mm 0,0 km/h (0 Bft) S 180 4,1 C 0,0 km/h (0 Bft)
25.09.2015 07:50 6,0 C 6,1 C 88 % 1020,6 hPa 0,0 mm 0,0 km/h (0 Bft) S 180 4,2 C 0,0 km/h (0 Bft)
25.09.2015 07:55 6,0 C 6,2 C 88 % 1020,7 hPa 0,0 mm 0,0 km/h (0 Bft) S 180 4,2 C 0,0 km/h (0 Bft)
25.09.2015 08:00 6,1 C 6,4 C 88 % 1020,7 hPa 0,0 mm 0,0 km/h (0 Bft) S 180 4,3 C 0,0 km/h (0 Bft)
25.09.2015 08:05 6,2 C 6,5 C 88 % 1020,7 hPa 0,0 mm 0,0 km/h (0 Bft) S 180 4,4 C 0,0 km/h (0 Bft)
25.09.2015 08:10 6,3 C 6,6 C 88 % 1020,7 hPa 0,0 mm 0,0 km/h (0 Bft) S 180 4,5 C 0,0 km/h (0 Bft)
25.09.2015 08:15 6,5 C 6,7 C 88 % 1020,7 hPa 0,0 mm 0,0 km/h (0 Bft) S 180 4,7 C 0,0 km/h (0 Bft)
25.09.2015 08:20 6,6 C 6,8 C 88 % 1020,7 hPa 0,0 mm 0,0 km/h (0 Bft) SW 225 4,8 C 0,0 km/h (0 Bft)
25.09.2015 08:25 6,7 C 7,0 C 88 % 1020,7 hPa 0,0 mm 0,0 km/h (0 Bft) NW 315 4,9 C 0,0 km/h (0 Bft)
25.09.2015 08:30 6,7 C 7,0 C 88 % 1020,7 hPa 0,0 mm 0,0 km/h (0 Bft) NO 45 4,9 C 0,0 km/h (0 Bft)
25.09.2015 08:35 6,8 C 7,1 C 88 % 1020,9 hPa 0,0 mm 0,0 km/h (0 Bft) NO 45 5,0 C 0,0 km/h (0 Bft)
25.09.2015 08:40 6,8 C 7,2 C 88 % 1020,9 hPa 0,0 mm 0,0 km/h (0 Bft) N-NW 337 5,0 C 0,0 km/h (0 Bft)
25.09.2015 08:45 6,9 C 7,3 C 88 % 1020,9 hPa 0,0 mm 0,0 km/h (0 Bft) W-NW 292 5,1 C 0,0 km/h (0 Bft)
25.09.2015 08:50 7,0 C 7,5 C 88 % 1020,9 hPa 0,0 mm 0,3 km/h (0 Bft) N-NW 337 5,2 C 0,0 km/h (0 Bft)
25.09.2015 08:55 7,1 C 7,8 C 88 % 1021,0 hPa 0,0 mm 0,3 km/h (0 Bft) N-NW 337 5,2 C 0,0 km/h (0 Bft)
25.09.2015 09:00 7,3 C 8,1 C 88 % 1021,0 hPa 0,0 mm 0,0 km/h (0 Bft) NW 315 5,4 C 0,0 km/h (0 Bft)
25.09.2015 09:05 7,5 C 8,3 C 88 % 1021,0 hPa 0,0 mm 0,3 km/h (0 Bft) W-NW 292 5,6 C 0,0 km/h (0 Bft)
25.09.2015 09:10 7,8 C 8,5 C 88 % 1021,0 hPa 0,0 mm 1,0 km/h (0 Bft) N-NW 337 5,9 C 5,2 km/h (1 Bft)
25.09.2015 09:15 8,0 C 8,7 C 88 % 1021,0 hPa 0,0 mm 1,0 km/h (0 Bft) N-NO 22 6,1 C 0,0 km/h (0 Bft)
25.09.2015 09:20 8,3 C 9,3 C 88 % 1021,0 hPa 0,0 mm 0,5 km/h (0 Bft) N-NW 337 6,4 C 0,0 km/h (0 Bft)
25.09.2015 09:25 8,6 C 9,8 C 88 % 1021,0 hPa 0,0 mm 0,0 km/h (0 Bft) NO 45 6,7 C 0,0 km/h (0 Bft)
25.09.2015 09:30 8,9 C 10,4 C 88 % 1021,0 hPa 0,0 mm 0,0 km/h (0 Bft) NO 45 7,0 C 0,0 km/h (0 Bft)
25.09.2015 09:35 9,1 C 10,7 C 88 % 1021,1 hPa 0,0 mm 0,0 km/h (0 Bft) W-NW 292 7,2 C 0,0 km/h (0 Bft)
25.09.2015 09:40 9,4 C 11,0 C 87 % 1021,1 hPa 0,0 mm 0,3 km/h (0 Bft) O 90 7,3 C 0,0 km/h (0 Bft)
25.09.2015 09:45 9,4 C 10,9 C 87 % 1021,1 hPa 0,0 mm 0,3 km/h (0 Bft) O 90 7,3 C 0,0 km/h (0 Bft)
25.09.2015 09:50 10,0 C 12,5 C 87 % 1021,1 hPa 0,0 mm 0,0 km/h (0 Bft) O-NO 67 7,9 C 0,0 km/h (0 Bft)
25.09.2015 09:55 10,4 C 14,5 C 87 % 1020,5 hPa 0,0 mm 0,0 km/h (0 Bft) O-NO 67 8,3 C 0,0 km/h (0 Bft)
25.09.2015 10:00 10,9 C 16,9 C 86 % 1020,5 hPa 0,0 mm 0,0 km/h (0 Bft) SO 135 8,7 C 0,0 km/h (0 Bft)
25.09.2015 10:05 10,9 C 18,7 C 86 % 1020,5 hPa 0,0 mm 0,0 km/h (0 Bft) O-SO 112 8,7 C 0,0 km/h (0 Bft)
25.09.2015 10:10 10,9 C 19,7 C 85 % 1020,5 hPa 0,0 mm 0,0 km/h (0 Bft) O-NO 67 8,5 C 0,0 km/h (0 Bft)
25.09.2015 10:15 11,2 C 19,9 C 84 % 1021,9 hPa 0,0 mm 0,0 km/h (0 Bft) O-NO 67 8,6 C 0,0 km/h (0 Bft)
25.09.2015 10:20 12,1 C 20,6 C 83 % 1021,9 hPa 0,0 mm 0,3 km/h (0 Bft) S 180 9,3 C 0,0 km/h (0 Bft)
25.09.2015 10:25 11,9 C 20,9 C 81 % 1021,9 hPa 0,0 mm 0,5 km/h (0 Bft) W-NW 292 8,7 C 4,4 km/h (1 Bft)
25.09.2015 10:30 12,0 C 20,4 C 80 % 1021,9 hPa 0,0 mm 2,1 km/h (1 Bft) NW 315 8,7 C 7,5 km/h (2 Bft)
25.09.2015 10:36 12,4 C 20,3 C 79 % 1022,8 hPa 0,0 mm 2,6 km/h (1 Bft) NW 315 8,9 C 4,1 km/h (1 Bft)
25.09.2015 10:40 12,4 C 20,3 C 79 % 1022,8 hPa 0,0 mm 2,6 km/h (1 Bft) NW 315 8,9 C 4,1 km/h (1 Bft)
25.09.2015 10:45 12,6 C 19,9 C 78 % 1022,8 hPa 0,0 mm 2,6 km/h (1 Bft) W-NW 292 8,9 C 0,0 km/h (0 Bft)
25.09.2015 10:50 12,8 C 20,0 C 75 % 1022,8 hPa 0,0 mm 2,8 km/h (1 Bft) W 270 8,5 C 3,6 km/h (1 Bft)
25.09.2015 10:55 12,9 C 20,5 C 73 % 1023,2 hPa 0,0 mm 2,3 km/h (1 Bft) S-SW 202 8,2 C 2,8 km/h (1 Bft)
25.09.2015 11:00 13,6 C 21,2 C 71 % 1023,2 hPa 0,0 mm 2,1 km/h (1 Bft) NW 315 8,4 C 4,4 km/h (1 Bft)
25.09.2015 11:05 14,1 C 21,4 C 71 % 1023,2 hPa 0,0 mm 1,6 km/h (1 Bft) NW 315 8,9 C 0,0 km/h (0 Bft)
25.09.2015 11:10 14,3 C 21,6 C 70 % 1023,2 hPa 0,0 mm 1,3 km/h (1 Bft) O-SO 112 8,9 C 6,2 km/h (2 Bft)
25.09.2015 11:15 15,0 C 21,9 C 69 % 1023,7 hPa 0,0 mm 1,0 km/h (0 Bft) NO 45 9,4 C 3,1 km/h (1 Bft)
25.09.2015 11:20 15,2 C 22,0 C 66 % 1023,7 hPa 0,0 mm 2,3 km/h (1 Bft) O 90 8,9 C 6,0 km/h (2 Bft)
25.09.2015 11:25 14,9 C 22,1 C 65 % 1023,7 hPa 0,0 mm 2,3 km/h (1 Bft) O-SO 112 8,4 C 4,9 km/h (1 Bft)
25.09.2015 11:30 14,7 C 22,4 C 64 % 1023,7 hPa 0,0 mm 1,8 km/h (1 Bft) SO 135 8,0 C 4,1 km/h (1 Bft)
25.09.2015 11:35 14,5 C 21,7 C 65 % 1024,0 hPa 0,0 mm 1,8 km/h (1 Bft) O-NO 67 8,0 C 4,7 km/h (1 Bft)
25.09.2015 11:40 14,1 C 19,7 C 65 % 1024,0 hPa 0,0 mm 3,6 km/h (1 Bft) N-NO 22 7,6 C 9,6 km/h (2 Bft)
25.09.2015 11:45 14,1 C 18,8 C 65 % 1024,0 hPa 0,0 mm 4,1 km/h (1 Bft) N-NO 22 7,6 C 3,6 km/h (1 Bft)
25.09.2015 11:50 14,6 C 19,5 C 66 % 1024,0 hPa 0,0 mm 4,9 km/h (1 Bft) NO 45 8,3 C 11,9 km/h (2 Bft)
25.09.2015 11:55 14,6 C 19,1 C 66 % 1023,5 hPa 0,0 mm 4,4 km/h (1 Bft) NO 45 8,3 C 6,5 km/h (2 Bft)
25.09.2015 12:00 14,1 C 18,0 C 66 % 1023,5 hPa 0,0 mm 6,2 km/h (2 Bft) W-NW 292 7,8 C 16,6 km/h (3 Bft)
25.09.2015 12:05 13,9 C 16,8 C 67 % 1023,5 hPa 0,0 mm 7,5 km/h (2 Bft) N-NO 22 7,9 C 15,8 km/h (3 Bft)
25.09.2015 12:10 13,5 C 15,6 C 68 % 1023,5 hPa 0,0 mm 6,7 km/h (2 Bft) W-SW 247 7,7 C 8,0 km/h (2 Bft)
25.09.2015 12:15 13,2 C 15,0 C 68 % 1022,9 hPa 0,0 mm 7,8 km/h (2 Bft) N-NO 22 7,4 C 8,8 km/h (2 Bft)
25.09.2015 12:20 12,9 C 14,3 C 69 % 1022,9 hPa 0,0 mm 7,8 km/h (2 Bft) NW 315 7,4 C 18,9 km/h (3 Bft)
25.09.2015 12:25 12,9 C 14,3 C 69 % 1022,9 hPa 0,0 mm 6,0 km/h (2 Bft) NW 315 7,4 C 6,0 km/h (2 Bft)
25.09.2015 12:30 12,8 C 14,3 C 69 % 1022,9 hPa 0,0 mm 4,7 km/h (1 Bft) N-NW 337 7,3 C 5,7 km/h (1 Bft)
25.09.2015 12:35 12,9 C 14,4 C 69 % 1022,2 hPa 0,0 mm 4,9 km/h (1 Bft) O-NO 67 7,4 C 3,9 km/h (1 Bft)
25.09.2015 12:40 12,9 C 14,7 C 68 % 1022,2 hPa 0,0 mm 3,4 km/h (1 Bft) W 270 7,1 C 8,5 km/h (2 Bft)
25.09.2015 12:45 12,8 C 14,7 C 67 % 1022,2 hPa 0,0 mm 4,4 km/h (1 Bft) NW 315 6,8 C 9,3 km/h (2 Bft)
25.09.2015 12:50 12,7 C 14,6 C 67 % 1022,2 hPa 0,0 mm 6,5 km/h (2 Bft) NW 315 6,7 C 11,1 km/h (2 Bft)
25.09.2015 12:55 12,9 C 14,6 C 67 % 1022,0 hPa 0,0 mm 6,7 km/h (2 Bft) W-NW 292 6,9 C 8,8 km/h (2 Bft)
25.09.2015 13:00 13,1 C 14,7 C 67 % 1022,0 hPa 0,0 mm 6,2 km/h (2 Bft) W-NW 292 7,1 C 8,0 km/h (2 Bft)
25.09.2015 13:05 13,1 C 14,9 C 67 % 1022,0 hPa 0,0 mm 6,0 km/h (2 Bft) N-NW 337 7,1 C 8,3 km/h (2 Bft)
25.09.2015 13:10 13,3 C 15,1 C 66 % 1022,0 hPa 0,0 mm 5,4 km/h (1 Bft) NW 315 7,1 C 6,7 km/h (2 Bft)
25.09.2015 13:15 13,4 C 15,4 C 66 % 1021,7 hPa 0,0 mm 6,2 km/h (2 Bft) NW 315 7,2 C 7,8 km/h (2 Bft)
25.09.2015 13:20 13,5 C 15,4 C 65 % 1021,7 hPa 0,0 mm 7,3 km/h (2 Bft) NW 315 7,1 C 8,0 km/h (2 Bft)
25.09.2015 13:25 13,4 C 15,4 C 65 % 1021,7 hPa 0,0 mm 7,8 km/h (2 Bft) W-NW 292 7,0 C 10,4 km/h (2 Bft)
25.09.2015 13:30 13,3 C 15,4 C 64 % 1021,7 hPa 0,0 mm 7,3 km/h (2 Bft) NW 315 6,6 C 7,0 km/h (2 Bft)
25.09.2015 13:35 13,3 C 15,4 C 64 % 1021,4 hPa 0,0 mm 7,3 km/h (2 Bft) W 270 6,6 C 7,0 km/h (2 Bft)
25.09.2015 13:40 13,4 C 15,8 C 64 % 1021,4 hPa 0,0 mm 5,4 km/h (1 Bft) N-NW 337 6,7 C 4,7 km/h (1 Bft)
25.09.2015 13:44 13,7 C 16,1 C 63 % 1021,4 hPa 0,0 mm 3,1 km/h (1 Bft) W-NW 292 6,8 C 0,0 km/h (0 Bft)
25.09.2015 13:45 13,7 C 16,1 C 63 % 1021,4 hPa 0,0 mm 3,1 km/h (1 Bft) W-NW 292 6,8 C 0,0 km/h (0 Bft)
25.09.2015 13:50 13,8 C 16,7 C 63 % 1021,4 hPa 0,0 mm 2,6 km/h (1 Bft) W 270 6,9 C 2,8 km/h (1 Bft)
25.09.2015 13:55 14,0 C 17,0 C 63 % 1021,4 hPa 0,0 mm 2,1 km/h (1 Bft) W-SW 247 7,1 C 3,1 km/h (1 Bft)
25.09.2015 14:00 13,8 C 16,7 C 62 % 1021,4 hPa 0,0 mm 2,6 km/h (1 Bft) W-NW 292 6,6 C 4,7 km/h (1 Bft)
25.09.2015 14:05 13,8 C 16,5 C 62 % 1021,4 hPa 0,0 mm 2,8 km/h (1 Bft) NW 315 6,6 C 5,4 km/h (1 Bft)
25.09.2015 14:10 13,8 C 16,5 C 63 % 1021,4 hPa 0,0 mm 2,6 km/h (1 Bft) NW 315 6,9 C 6,5 km/h (2 Bft)
25.09.2015 14:15 13,8 C 16,4 C 63 % 1021,2 hPa 0,0 mm 3,6 km/h (1 Bft) NW 315 6,9 C 5,7 km/h (1 Bft)
25.09.2015 14:20 14,0 C 16,3 C 63 % 1021,2 hPa 0,0 mm 3,4 km/h (1 Bft) N-NW 337 7,1 C 2,6 km/h (1 Bft)
25.09.2015 14:25 14,0 C 16,5 C 62 % 1021,2 hPa 0,0 mm 2,1 km/h (1 Bft) W-NW 292 6,8 C 4,9 km/h (1 Bft)
25.09.2015 14:30 14,0 C 16,4 C 62 % 1021,2 hPa 0,0 mm 2,1 km/h (1 Bft) NW 315 6,8 C 0,0 km/h (0 Bft)
25.09.2015 14:35 14,0 C 16,5 C 62 % 1021,1 hPa 0,0 mm 1,8 km/h (1 Bft) N-NW 337 6,8 C 0,0 km/h (0 Bft)
25.09.2015 14:40 13,8 C 16,4 C 62 % 1021,1 hPa 0,0 mm 0,3 km/h (0 Bft) N 360 6,6 C 0,0 km/h (0 Bft)
25.09.2015 14:45 13,9 C 16,5 C 63 % 1021,1 hPa 0,0 mm 0,3 km/h (0 Bft) N 360 7,0 C 0,0 km/h (0 Bft)
25.09.2015 14:50 14,0 C 16,4 C 63 % 1021,1 hPa 0,0 mm 0,8 km/h (0 Bft) W-NW 292 7,1 C 4,9 km/h (1 Bft)
25.09.2015 14:55 14,0 C 16,3 C 62 % 1021,2 hPa 0,0 mm 1,0 km/h (0 Bft) W 270 6,8 C 0,0 km/h (0 Bft)
25.09.2015 15:00 14,0 C 16,4 C 62 % 1021,2 hPa 0,0 mm 0,3 km/h (0 Bft) W 270 6,8 C 0,0 km/h (0 Bft)
25.09.2015 15:05 14,0 C 16,4 C 62 % 1021,2 hPa 0,0 mm 0,8 km/h (0 Bft) N-NO 22 6,8 C 4,9 km/h (1 Bft)
25.09.2015 15:10 13,9 C 16,3 C 63 % 1021,2 hPa 0,0 mm 1,0 km/h (0 Bft) N-NO 22 7,0 C 0,0 km/h (0 Bft)
25.09.2015 15:15 13,9 C 16,4 C 63 % 1021,1 hPa 0,0 mm 1,0 km/h (0 Bft) N-NO 22 7,0 C 2,6 km/h (1 Bft)
25.09.2015 15:20 13,8 C 16,1 C 63 % 1021,1 hPa 0,0 mm 2,6 km/h (1 Bft) O-NO 67 6,9 C 3,9 km/h (1 Bft)
25.09.2015 15:25 13,7 C 15,8 C 63 % 1021,1 hPa 0,0 mm 3,6 km/h (1 Bft) O 90 6,8 C 3,4 km/h (1 Bft)
25.09.2015 15:30 13,6 C 15,6 C 63 % 1021,1 hPa 0,0 mm 1,8 km/h (1 Bft) S-SO 157 6,7 C 0,0 km/h (0 Bft)
25.09.2015 15:35 13,7 C 15,6 C 63 % 1021,1 hPa 0,0 mm 0,5 km/h (0 Bft) SO 135 6,8 C 0,0 km/h (0 Bft)
25.09.2015 15:40 13,7 C 15,6 C 63 % 1021,1 hPa 0,0 mm 0,0 km/h (0 Bft) SO 135 6,8 C 0,0 km/h (0 Bft)
25.09.2015 15:45 13,7 C 15,6 C 64 % 1021,1 hPa 0,0 mm 0,0 km/h (0 Bft) SO 135 7,0 C 0,0 km/h (0 Bft)
25.09.2015 15:50 13,5 C 15,4 C 64 % 1021,1 hPa 0,0 mm 0,5 km/h (0 Bft) SO 135 6,8 C 2,8 km/h (1 Bft)
25.09.2015 15:55 13,5 C 15,3 C 64 % 1021,2 hPa 0,0 mm 0,5 km/h (0 Bft) SO 135 6,8 C 0,0 km/h (0 Bft)
25.09.2015 16:00 13,6 C 15,3 C 64 % 1021,2 hPa 0,0 mm 0,5 km/h (0 Bft) S-SO 157 6,9 C 0,0 km/h (0 Bft)
25.09.2015 16:05 13,5 C 15,2 C 65 % 1021,2 hPa 0,0 mm 0,3 km/h (0 Bft) SO 135 7,1 C 0,0 km/h (0 Bft)
25.09.2015 16:10 13,5 C 15,0 C 65 % 1021,2 hPa 0,0 mm 0,0 km/h (0 Bft) O-SO 112 7,1 C 0,0 km/h (0 Bft)
25.09.2015 16:15 13,4 C 14,9 C 66 % 1021,1 hPa 0,0 mm 0,0 km/h (0 Bft) O-SO 112 7,2 C 0,0 km/h (0 Bft)
25.09.2015 16:20 13,4 C 14,9 C 66 % 1021,1 hPa 0,0 mm 0,0 km/h (0 Bft) O-SO 112 7,2 C 0,0 km/h (0 Bft)
25.09.2015 16:25 13,4 C 14,9 C 66 % 1021,1 hPa 0,0 mm 0,0 km/h (0 Bft) O-SO 112 7,2 C 0,0 km/h (0 Bft)
25.09.2015 16:30 13,4 C 14,9 C 66 % 1021,1 hPa 0,0 mm 0,0 km/h (0 Bft) O-SO 112 7,2 C 0,0 km/h (0 Bft)
25.09.2015 16:35 13,5 C 15,1 C 65 % 1020,9 hPa 0,0 mm 0,0 km/h (0 Bft) SO 135 7,1 C 0,0 km/h (0 Bft)
25.09.2015 16:40 13,6 C 15,5 C 65 % 1020,9 hPa 0,0 mm 0,0 km/h (0 Bft) O-SO 112 7,1 C 0,0 km/h (0 Bft)
25.09.2015 16:45 13,7 C 15,8 C 65 % 1020,9 hPa 0,0 mm 0,0 km/h (0 Bft) SO 135 7,2 C 0,0 km/h (0 Bft)
25.09.2015 16:50 13,7 C 15,9 C 64 % 1020,9 hPa 0,0 mm 0,0 km/h (0 Bft) O-SO 112 7,0 C 0,0 km/h (0 Bft)
25.09.2015 16:55 13,7 C 15,8 C 65 % 1021,0 hPa 0,0 mm 0,0 km/h (0 Bft) O-SO 112 7,2 C 0,0 km/h (0 Bft)
25.09.2015 17:00 13,7 C 15,7 C 65 % 1021,0 hPa 0,0 mm 0,3 km/h (0 Bft) O-SO 112 7,2 C 3,6 km/h (1 Bft)
25.09.2015 17:05 13,8 C 15,5 C 65 % 1021,0 hPa 0,0 mm 0,5 km/h (0 Bft) O-SO 112 7,3 C 0,0 km/h (0 Bft)
25.09.2015 17:10 13,7 C 15,2 C 65 % 1021,0 hPa 0,0 mm 0,5 km/h (0 Bft) O-SO 112 7,2 C 0,0 km/h (0 Bft)
25.09.2015 17:15 13,7 C 15,2 C 66 % 1021,1 hPa 0,0 mm 0,3 km/h (0 Bft) O-SO 112 7,5 C 0,0 km/h (0 Bft)
25.09.2015 17:20 13,5 C 15,0 C 66 % 1021,1 hPa 0,0 mm 0,0 km/h (0 Bft) O-SO 112 7,3 C 0,0 km/h (0 Bft)
25.09.2015 17:25 13,4 C 15,0 C 66 % 1021,1 hPa 0,0 mm 0,0 km/h (0 Bft) SO 135 7,2 C 0,0 km/h (0 Bft)
25.09.2015 17:30 13,2 C 14,7 C 66 % 1021,1 hPa 0,0 mm 0,0 km/h (0 Bft) SO 135 7,0 C 0,0 km/h (0 Bft)
25.09.2015 17:35 13,1 C 14,5 C 67 % 1021,1 hPa 0,0 mm 0,0 km/h (0 Bft) SO 135 7,1 C 0,0 km/h (0 Bft)
25.09.2015 17:40 13,0 C 14,2 C 67 % 1021,1 hPa 0,0 mm 0,0 km/h (0 Bft) O-SO 112 7,0 C 0,0 km/h (0 Bft)
25.09.2015 17:45 12,9 C 14,1 C 68 % 1021,1 hPa 0,0 mm 0,0 km/h (0 Bft) SO 135 7,1 C 0,0 km/h (0 Bft)
25.09.2015 17:50 12,8 C 13,9 C 68 % 1021,1 hPa 0,0 mm 0,0 km/h (0 Bft) SO 135 7,0 C 0,0 km/h (0 Bft)
25.09.2015 17:55 12,8 C 13,8 C 69 % 1020,9 hPa 0,0 mm 0,0 km/h (0 Bft) SO 135 7,3 C 0,0 km/h (0 Bft)
25.09.2015 18:00 12,7 C 13,7 C 69 % 1020,9 hPa 0,0 mm 0,0 km/h (0 Bft) SO 135 7,2 C 0,0 km/h (0 Bft)
25.09.2015 18:05 12,5 C 13,6 C 69 % 1020,9 hPa 0,0 mm 0,0 km/h (0 Bft) O-SO 112 7,0 C 0,0 km/h (0 Bft)
25.09.2015 18:10 12,4 C 13,4 C 69 % 1020,9 hPa 0,0 mm 0,0 km/h (0 Bft) O-SO 112 6,9 C 0,0 km/h (0 Bft)
25.09.2015 18:15 12,3 C 13,3 C 70 % 1020,9 hPa 0,0 mm 0,0 km/h (0 Bft) SO 135 7,0 C 0,0 km/h (0 Bft)
25.09.2015 18:20 12,3 C 13,1 C 71 % 1020,9 hPa 0,0 mm 0,0 km/h (0 Bft) SO 135 7,2 C 0,0 km/h (0 Bft)
25.09.2015 18:25 12,2 C 12,9 C 71 % 1020,9 hPa 0,0 mm 0,0 km/h (0 Bft) SO 135 7,1 C 0,0 km/h (0 Bft)
25.09.2015 18:30 12,1 C 12,7 C 72 % 1020,9 hPa 0,0 mm 0,0 km/h (0 Bft) SO 135 7,2 C 0,0 km/h (0 Bft)
25.09.2015 18:35 12,0 C 12,6 C 72 % 1020,9 hPa 0,0 mm 0,0 km/h (0 Bft) SO 135 7,1 C 0,0 km/h (0 Bft)
25.09.2015 18:40 12,0 C 12,5 C 73 % 1020,9 hPa 0,0 mm 0,0 km/h (0 Bft) SO 135 7,3 C 0,0 km/h (0 Bft)
25.09.2015 18:45 11,9 C 12,4 C 73 % 1020,9 hPa 0,0 mm 0,0 km/h (0 Bft) SO 135 7,2 C 0,0 km/h (0 Bft)
25.09.2015 18:50 11,8 C 12,2 C 73 % 1020,9 hPa 0,0 mm 0,0 km/h (0 Bft) SO 135 7,1 C 0,0 km/h (0 Bft)
25.09.2015 18:55 11,8 C 12,2 C 74 % 1021,2 hPa 0,0 mm 0,0 km/h (0 Bft) SO 135 7,3 C 0,0 km/h (0 Bft)
25.09.2015 19:00 11,7 C 11,9 C 75 % 1021,2 hPa 0,0 mm 0,0 km/h (0 Bft) S-SO 157 7,4 C 0,0 km/h (0 Bft)
25.09.2015 19:05 11,6 C 11,8 C 75 % 1021,2 hPa 0,0 mm 0,0 km/h (0 Bft) S-SO 157 7,3 C 0,0 km/h (0 Bft)
25.09.2015 19:10 11,4 C 11,6 C 76 % 1021,2 hPa 0,0 mm 0,0 km/h (0 Bft) S-SO 157 7,3 C 0,0 km/h (0 Bft)
25.09.2015 19:15 11,3 C 11,5 C 76 % 1021,2 hPa 0,0 mm 0,3 km/h (0 Bft) S-SO 157 7,2 C 2,8 km/h (1 Bft)
25.09.2015 19:20 11,2 C 11,4 C 76 % 1021,2 hPa 0,0 mm 0,3 km/h (0 Bft) S-SO 157 7,1 C 0,0 km/h (0 Bft)
25.09.2015 19:25 11,3 C 11,4 C 77 % 1021,2 hPa 0,0 mm 0,3 km/h (0 Bft) S-SO 157 7,4 C 2,6 km/h (1 Bft)
25.09.2015 19:30 11,2 C 11,3 C 77 % 1021,2 hPa 0,0 mm 0,8 km/h (0 Bft) S-SO 157 7,3 C 0,0 km/h (0 Bft)
25.09.2015 19:35 11,2 C 11,2 C 77 % 1021,1 hPa 0,0 mm 0,8 km/h (0 Bft) S-SO 157 7,3 C 0,0 km/h (0 Bft)
25.09.2015 19:40 11,1 C 11,1 C 78 % 1021,1 hPa 0,0 mm 0,0 km/h (0 Bft) S-SO 157 7,4 C 0,0 km/h (0 Bft)
25.09.2015 19:45 11,0 C 11,0 C 79 % 1021,1 hPa 0,0 mm 1,6 km/h (1 Bft) S-SO 157 7,5 C 0,0 km/h (0 Bft)
25.09.2015 19:50 11,0 C 11,0 C 79 % 1021,1 hPa 0,0 mm 1,6 km/h (1 Bft) S-SO 157 7,5 C 0,0 km/h (0 Bft)
25.09.2015 19:55 11,0 C 11,0 C 80 % 1021,2 hPa 0,0 mm 1,0 km/h (0 Bft) S-SO 157 7,7 C 0,0 km/h (0 Bft)
25.09.2015 20:00 10,8 C 10,8 C 81 % 1021,2 hPa 0,0 mm 0,0 km/h (0 Bft) S-SO 157 7,7 C 0,0 km/h (0 Bft)
25.09.2015 20:05 10,8 C 10,8 C 80 % 1021,2 hPa 0,0 mm 0,0 km/h (0 Bft) S-SO 157 7,5 C 0,0 km/h (0 Bft)
25.09.2015 20:10 10,8 C 10,7 C 80 % 1021,2 hPa 0,0 mm 0,0 km/h (0 Bft) S-SO 157 7,5 C 0,0 km/h (0 Bft)
25.09.2015 20:15 10,7 C 10,7 C 80 % 1021,5 hPa 0,0 mm 0,0 km/h (0 Bft) S-SO 157 7,4 C 0,0 km/h (0 Bft)
25.09.2015 20:20 10,8 C 10,7 C 80 % 1021,5 hPa 0,0 mm 0,5 km/h (0 Bft) S 180 7,5 C 0,0 km/h (0 Bft)
25.09.2015 20:25 10,7 C 10,6 C 81 % 1021,5 hPa 0,0 mm 0,5 km/h (0 Bft) S 180 7,6 C 0,0 km/h (0 Bft)
25.09.2015 20:30 10,7 C 10,6 C 80 % 1021,5 hPa 0,0 mm 0,0 km/h (0 Bft) S 180 7,4 C 0,0 km/h (0 Bft)
25.09.2015 20:35 10,6 C 10,5 C 80 % 1021,6 hPa 0,0 mm 0,0 km/h (0 Bft) S 180 7,3 C 0,0 km/h (0 Bft)
25.09.2015 20:40 10,5 C 10,5 C 80 % 1021,6 hPa 0,0 mm 0,0 km/h (0 Bft) S 180 7,2 C 0,0 km/h (0 Bft)
25.09.2015 20:45 10,5 C 10,4 C 81 % 1021,6 hPa 0,0 mm 0,0 km/h (0 Bft) S 180 7,4 C 0,0 km/h (0 Bft)
25.09.2015 20:50 10,5 C 10,4 C 81 % 1021,6 hPa 0,0 mm 0,0 km/h (0 Bft) S 180 7,4 C 0,0 km/h (0 Bft)
25.09.2015 20:55 10,4 C 10,4 C 80 % 1021,6 hPa 0,0 mm 0,0 km/h (0 Bft) S 180 7,1 C 0,0 km/h (0 Bft)
25.09.2015 21:00 10,5 C 10,4 C 81 % 1021,6 hPa 0,0 mm 0,0 km/h (0 Bft) S 180 7,4 C 0,0 km/h (0 Bft)
25.09.2015 21:05 10,5 C 10,4 C 81 % 1021,6 hPa 0,0 mm 0,0 km/h (0 Bft) S 180 7,4 C 0,0 km/h (0 Bft)
25.09.2015 21:10 10,4 C 10,4 C 80 % 1021,6 hPa 0,0 mm 0,0 km/h (0 Bft) S 180 7,1 C 0,0 km/h (0 Bft)
25.09.2015 21:15 10,4 C 10,4 C 80 % 1021,8 hPa 0,0 mm 0,0 km/h (0 Bft) S 180 7,1 C 0,0 km/h (0 Bft)
25.09.2015 21:20 10,4 C 10,4 C 80 % 1021,8 hPa 0,0 mm 0,0 km/h (0 Bft) S 180 7,1 C 0,0 km/h (0 Bft)
25.09.2015 21:25 10,4 C 10,4 C 80 % 1021,8 hPa 0,0 mm 0,0 km/h (0 Bft) S 180 7,1 C 0,0 km/h (0 Bft)
25.09.2015 21:30 10,3 C 10,3 C 80 % 1021,8 hPa 0,0 mm 0,0 km/h (0 Bft) S 180 7,0 C 0,0 km/h (0 Bft)
25.09.2015 21:35 10,3 C 10,3 C 81 % 1021,7 hPa 0,0 mm 0,0 km/h (0 Bft) S 180 7,2 C 0,0 km/h (0 Bft)
25.09.2015 21:40 10,3 C 10,2 C 81 % 1021,7 hPa 0,0 mm 0,0 km/h (0 Bft) S 180 7,2 C 0,0 km/h (0 Bft)
25.09.2015 21:45 10,2 C 10,2 C 81 % 1021,7 hPa 0,0 mm 0,0 km/h (0 Bft) S 180 7,1 C 0,0 km/h (0 Bft)
25.09.2015 21:50 10,2 C 10,2 C 81 % 1021,7 hPa 0,0 mm 0,0 km/h (0 Bft) S 180 7,1 C 0,0 km/h (0 Bft)
25.09.2015 21:55 10,2 C 10,2 C 81 % 1021,6 hPa 0,0 mm 0,0 km/h (0 Bft) S 180 7,1 C 0,0 km/h (0 Bft)
25.09.2015 22:00 10,2 C 10,1 C 81 % 1021,6 hPa 0,0 mm 0,0 km/h (0 Bft) S 180 7,1 C 0,0 km/h (0 Bft)
25.09.2015 22:05 10,2 C 10,1 C 81 % 1021,6 hPa 0,0 mm 0,0 km/h (0 Bft) S 180 7,1 C 0,0 km/h (0 Bft)
25.09.2015 22:10 10,2 C 10,1 C 81 % 1021,6 hPa 0,0 mm 0,0 km/h (0 Bft) S 180 7,1 C 0,0 km/h (0 Bft)
25.09.2015 22:15 10,1 C 10,1 C 81 % 1021,7 hPa 0,0 mm 0,0 km/h (0 Bft) S 180 7,0 C 0,0 km/h (0 Bft)
25.09.2015 22:20 10,1 C 10,1 C 81 % 1021,7 hPa 0,0 mm 0,0 km/h (0 Bft) S 180 7,0 C 0,0 km/h (0 Bft)
25.09.2015 22:25 10,1 C 10,0 C 82 % 1021,7 hPa 0,0 mm 0,0 km/h (0 Bft) S 180 7,2 C 0,0 km/h (0 Bft)
25.09.2015 22:30 10,0 C 10,0 C 81 % 1021,7 hPa 0,0 mm 0,0 km/h (0 Bft) S-SO 157 6,9 C 0,0 km/h (0 Bft)
25.09.2015 22:35 10,1 C 10,0 C 82 % 1021,4 hPa 0,0 mm 0,0 km/h (0 Bft) S 180 7,2 C 0,0 km/h (0 Bft)
25.09.2015 22:40 10,1 C 10,0 C 82 % 1021,4 hPa 0,0 mm 0,0 km/h (0 Bft) W 270 7,2 C 0,0 km/h (0 Bft)
25.09.2015 22:45 10,1 C 10,0 C 82 % 1021,4 hPa 0,0 mm 0,0 km/h (0 Bft) NW 315 7,2 C 0,0 km/h (0 Bft)
25.09.2015 22:50 10,1 C 10,0 C 82 % 1021,4 hPa 0,0 mm 0,0 km/h (0 Bft) W 270 7,2 C 0,0 km/h (0 Bft)
25.09.2015 22:55 10,1 C 10,0 C 82 % 1021,6 hPa 0,0 mm 0,0 km/h (0 Bft) W-NW 292 7,2 C 0,0 km/h (0 Bft)
25.09.2015 23:00 10,0 C 9,9 C 82 % 1021,6 hPa 0,0 mm 0,0 km/h (0 Bft) N-NW 337 7,1 C 0,0 km/h (0 Bft)
25.09.2015 23:05 10,0 C 9,9 C 83 % 1021,6 hPa 0,0 mm 0,0 km/h (0 Bft) NW 315 7,2 C 0,0 km/h (0 Bft)
25.09.2015 23:10 10,0 C 10,0 C 81 % 1021,6 hPa 0,0 mm 0,0 km/h (0 Bft) N-NW 337 6,9 C 0,0 km/h (0 Bft)
25.09.2015 23:15 9,9 C 10,0 C 82 % 1021,5 hPa 0,0 mm 0,0 km/h (0 Bft) N-NW 337 7,0 C 0,0 km/h (0 Bft)
25.09.2015 23:20 9,9 C 9,9 C 82 % 1021,5 hPa 0,0 mm 0,0 km/h (0 Bft) N-NW 337 7,0 C 0,0 km/h (0 Bft)
25.09.2015 23:25 9,9 C 9,9 C 82 % 1021,5 hPa 0,0 mm 0,0 km/h (0 Bft) N-NW 337 7,0 C 0,0 km/h (0 Bft)
25.09.2015 23:30 9,8 C 9,8 C 82 % 1021,5 hPa 0,0 mm 0,0 km/h (0 Bft) N-NW 337 6,9 C 0,0 km/h (0 Bft)
25.09.2015 23:35 9,8 C 9,8 C 82 % 1021,6 hPa 0,0 mm 0,0 km/h (0 Bft) N-NW 337 6,9 C 0,0 km/h (0 Bft)
25.09.2015 23:40 9,8 C 9,8 C 82 % 1021,6 hPa 0,0 mm 0,0 km/h (0 Bft) N-NW 337 6,9 C 0,0 km/h (0 Bft)
25.09.2015 23:45 9,8 C 9,8 C 82 % 1021,6 hPa 0,0 mm 0,0 km/h (0 Bft) W-SW 247 6,9 C 0,0 km/h (0 Bft)
25.09.2015 23:50 9,8 C 9,8 C 82 % 1021,6 hPa 0,0 mm 0,0 km/h (0 Bft) W 270 6,9 C 0,0 km/h (0 Bft)
25.09.2015 23:55 9,8 C 9,8 C 82 % 1021,6 hPa 0,0 mm 0,0 km/h (0 Bft) W 270 6,9 C 0,0 km/h (0 Bft)
_ Min-Zeit 03:50 03:55 15:05 06:30 - 23:55 - - 03:50 23:55
Minimum _ 3,2 C 3,1 C 62 % 1020,2 hPa - 0,0 km/h (0 Bft) - - 1,9 C 0,0 km/h (0 Bft)
_ Max-Zeit 11:20 11:30 07:15 11:50 23:55 13:25 - - 11:15 12:20
Maximum _ 15,2 C 22,4 C 93 % 1024,0 hPa 0,0 mm 7,8 km/h
W-NW (2 Bft)
- - 9,4 C 18,9 km/h
NW (3 Bft)
Durchschnitt _ 9,3 C 10,5 C 79 % 1021,2 hPa #0,0 mm 0,8 km/h (0 Bft) NW - 5,8 C 1,3 km/h (1 Bft)